When you browse on this site, cookies collect data to enhance your experience and personalize the content and advertising you see.
Visit our Privacy Policy to learn more. By continuing to use the site, you agree to this use of cookies and data.

Hourly Weather Canillo

Today, 13 July, Monday

Time Temperature Precipitation Wind Pressure Humidity
00:00 +12°C° 0 mm 1 mps 622 mmHg 88%
01:00 +11°C° 0.1 mm 1 mps 621 mmHg 88%
02:00 +11°C° 0.1 mm 1 mps 621 mmHg 89%
03:00 +11°C° 0.1 mm 1 mps 621 mmHg 89%
04:00 +12°C° 0 mm 1 mps 621 mmHg 89%
05:00 +12°C° 0 mm 1 mps 622 mmHg 88%
06:00 +13°C° 0 mm 1 mps 622 mmHg 87%
07:00 +15°C° 0.4 mm 1 mps 623 mmHg 81%
08:00 +16°C° 0.4 mm 1 mps 623 mmHg 76%
09:00 +19°C° 0.4 mm 1 mps 624 mmHg 70%
10:00 +19°C° 1.1 mm 1 mps 624 mmHg 69%
11:00 +20°C° 1.1 mm 1 mps 624 mmHg 68%
12:00 +20°C° 1.1 mm 1 mps 624 mmHg 67%
13:00 +19°C° 1.2 mm 2 mps 624 mmHg 69%
14:00 +18°C° 1.2 mm 2 mps 623 mmHg 70%
15:00 +18°C° 1.2 mm 2 mps 623 mmHg 72%
16:00 +17°C° 0.4 mm 2 mps 622 mmHg 75%
17:00 +16°C° 0.4 mm 2 mps 622 mmHg 79%
18:00 +15°C° 0.4 mm 2 mps 621 mmHg 83%
19:00 +13°C° 0 mm 2 mps 621 mmHg 86%
20:00 +12°C° 0 mm 2 mps 621 mmHg 89%
21:00 +9°C° 0 mm 2 mps 620 mmHg 92%
22:00 +9°C° 0 mm 2 mps 620 mmHg 91%
23:00 +8°C° 0 mm 2 mps 620 mmHg 90%

Tomorrow, 14 July, Tuesday

Time Temperature Precipitation Wind Pressure Humidity
00:00 +8°C° 0 mm 2 mps 620 mmHg 89%
01:00 +8°C° 0 mm 2 mps 619 mmHg 89%
02:00 +9°C° 0 mm 1 mps 619 mmHg 89%
03:00 +9°C° 0 mm 1 mps 619 mmHg 89%
04:00 +9°C° 0 mm 1 mps 619 mmHg 86%
05:00 +10°C° 0 mm 1 mps 620 mmHg 84%
06:00 +10°C° 0 mm 1 mps 620 mmHg 82%
07:00 +12°C° 0 mm 1 mps 620 mmHg 76%
08:00 +13°C° 0 mm 1 mps 621 mmHg 69%
09:00 +15°C° 0 mm 1 mps 621 mmHg 63%
10:00 +15°C° 0 mm 1 mps 621 mmHg 63%
11:00 +15°C° 0 mm 1 mps 621 mmHg 63%
12:00 +16°C° 0 mm 1 mps 621 mmHg 64%
13:00 +15°C° 0.4 mm 1 mps 621 mmHg 67%
14:00 +15°C° 0.4 mm 1 mps 620 mmHg 70%
15:00 +15°C° 0.4 mm 1 mps 620 mmHg 73%
16:00 +14°C° 0.4 mm 1 mps 619 mmHg 77%
17:00 +13°C° 0.4 mm 1 mps 619 mmHg 81%
18:00 +13°C° 0.4 mm 1 mps 619 mmHg 85%
19:00 +12°C° 0.1 mm 1 mps 619 mmHg 87%
20:00 +11°C° 0.1 mm 1 mps 619 mmHg 90%
21:00 +10°C° 0.1 mm 1 mps 619 mmHg 92%
22:00 +10°C° 0 mm 1 mps 619 mmHg 93%
23:00 +10°C° 0 mm 1 mps 619 mmHg 93%

Day after tomorrow, 15 July, Wednesday

Time Temperature Precipitation Wind Pressure Humidity
00:00 +9°C° 0 mm 1 mps 619 mmHg 94%
01:00 +9°C° 0 mm 1 mps 619 mmHg 94%
02:00 +9°C° 0 mm 1 mps 619 mmHg 94%
03:00 +9°C° 0 mm 1 mps 619 mmHg 93%
04:00 +10°C° 0 mm 1 mps 619 mmHg 92%
05:00 +10°C° 0 mm 1 mps 619 mmHg 92%
06:00 +10°C° 0 mm 1 mps 619 mmHg 91%
07:00 +12°C° 0 mm 1 mps 620 mmHg 84%
08:00 +13°C° 0 mm 1 mps 621 mmHg 78%
09:00 +14°C° 0 mm 1 mps 622 mmHg 71%
10:00 +15°C° 0.1 mm 1 mps 621 mmHg 71%
11:00 +15°C° 0.1 mm 1 mps 621 mmHg 71%
12:00 +15°C° 0.1 mm 1 mps 621 mmHg 72%
13:00 +15°C° 0.3 mm 2 mps 621 mmHg 74%
14:00 +14°C° 0.3 mm 2 mps 621 mmHg 77%
15:00 +14°C° 0.3 mm 2 mps 620 mmHg 80%
16:00 +13°C° 0.2 mm 2 mps 620 mmHg 84%
17:00 +13°C° 0.2 mm 2 mps 620 mmHg 87%
18:00 +12°C° 0.2 mm 2 mps 620 mmHg 91%
19:00 +12°C° 0.1 mm 2 mps 620 mmHg 92%
20:00 +10°C° 0.1 mm 2 mps 620 mmHg 93%
21:00 +9°C° 0.1 mm 2 mps 621 mmHg 94%
22:00 +10°C° 0 mm 1 mps 621 mmHg 94%
23:00 +10°C° 0 mm 1 mps 621 mmHg 94%

16 July, Thursday

Time Temperature Precipitation Wind Pressure Humidity
00:00 +9°C° 0 mm 1 mps 620 mmHg 94%
01:00 +9°C° 0 mm 1 mps 620 mmHg 95%
02:00 +8°C° 0 mm 1 mps 620 mmHg 95%
03:00 +8°C° 0 mm 1 mps 620 mmHg 95%
04:00 +8°C° 0 mm 1 mps 620 mmHg 93%
05:00 +9°C° 0 mm 1 mps 620 mmHg 92%
06:00 +9°C° 0 mm 1 mps 621 mmHg 90%
07:00 +11°C° 0 mm 1 mps 621 mmHg 84%
08:00 +13°C° 0 mm 1 mps 622 mmHg 77%
09:00 +15°C° 0 mm 1 mps 623 mmHg 70%
10:00 +16°C° 0 mm 1 mps 623 mmHg 66%
11:00 +17°C° 0 mm 2 mps 624 mmHg 61%
12:00 +18°C° 0 mm 2 mps 624 mmHg 56%
13:00 +18°C° 0.1 mm 2 mps 623 mmHg 58%
14:00 +18°C° 0.1 mm 2 mps 623 mmHg 60%
15:00 +18°C° 0.1 mm 2 mps 623 mmHg 61%
16:00 +16°C° 0.1 mm 2 mps 622 mmHg 68%
17:00 +15°C° 0.1 mm 2 mps 622 mmHg 74%
18:00 +13°C° 0.1 mm 2 mps 621 mmHg 81%
19:00 +12°C° 0 mm 2 mps 621 mmHg 84%
20:00 +10°C° 0 mm 2 mps 620 mmHg 88%
21:00 +9°C° 0 mm 2 mps 620 mmHg 92%
22:00 +8°C° 0 mm 2 mps 620 mmHg 92%
23:00 +8°C° 0 mm 2 mps 620 mmHg 92%

17 July, Friday

Time Temperature Precipitation Wind Pressure Humidity
00:00 +8°C° 0 mm 2 mps 620 mmHg 93%
01:00 +7°C° 0 mm 2 mps 619 mmHg 93%
02:00 +7°C° 0 mm 2 mps 619 mmHg 93%
03:00 +7°C° 0 mm 2 mps 619 mmHg 94%
04:00 +7°C° 0 mm 2 mps 619 mmHg 92%
05:00 +8°C° 0 mm 2 mps 619 mmHg 90%
06:00 +8°C° 0 mm 2 mps 620 mmHg 89%
07:00 +10°C° 0 mm 2 mps 620 mmHg 81%
08:00 +13°C° 0 mm 2 mps 621 mmHg 73%
09:00 +14°C° 0 mm 2 mps 622 mmHg 65%
10:00 +16°C° 0 mm 2 mps 622 mmHg 59%
11:00 +17°C° 0 mm 2 mps 623 mmHg 53%
12:00 +19°C° 0 mm 2 mps 623 mmHg 47%
13:00 +18°C° 0 mm 3 mps 623 mmHg 50%
14:00 +18°C° 0 mm 3 mps 622 mmHg 52%
15:00 +18°C° 0 mm 3 mps 622 mmHg 55%
16:00 +17°C° 0 mm 3 mps 621 mmHg 62%
17:00 +16°C° 0 mm 2 mps 621 mmHg 70%
18:00 +14°C° 0 mm 2 mps 620 mmHg 77%
19:00 +13°C° 0 mm 2 mps 620 mmHg 82%
20:00 +10°C° 0 mm 2 mps 620 mmHg 88%
21:00 +9°C° 0 mm 2 mps 620 mmHg 93%
22:00 +8°C° 0 mm 2 mps 620 mmHg 93%
23:00 +8°C° 0 mm 2 mps 619 mmHg 92%

18 July, Saturday

Time Temperature Precipitation Wind Pressure Humidity
00:00 +8°C° 0 mm 2 mps 619 mmHg 92%
01:00 +8°C° 0 mm 2 mps 619 mmHg 92%
02:00 +8°C° 0 mm 2 mps 619 mmHg 92%
03:00 +8°C° 0 mm 2 mps 619 mmHg 91%
04:00 +8°C° 0 mm 2 mps 619 mmHg 89%
05:00 +9°C° 0 mm 2 mps 620 mmHg 87%
06:00 +9°C° 0 mm 2 mps 620 mmHg 85%
07:00 +13°C° 0 mm 2 mps 621 mmHg 74%
08:00 +15°C° 0 mm 2 mps 622 mmHg 62%
09:00 +18°C° 0 mm 2 mps 623 mmHg 51%
10:00 +19°C° 0 mm 2 mps 623 mmHg 47%
11:00 +20°C° 0 mm 2 mps 623 mmHg 43%
12:00 +21°C° 0 mm 2 mps 623 mmHg 40%
13:00 +21°C° 0 mm 2 mps 623 mmHg 41%
14:00 +21°C° 0 mm 2 mps 622 mmHg 42%
15:00 +21°C° 0 mm 2 mps 622 mmHg 43%
16:00 +20°C° 0 mm 2 mps 622 mmHg 50%
17:00 +18°C° 0 mm 2 mps 621 mmHg 57%
18:00 +17°C° 0 mm 2 mps 620 mmHg 64%
19:00 +15°C° 0 mm 2 mps 620 mmHg 71%
20:00 +13°C° 0 mm 2 mps 619 mmHg 79%
21:00 +10°C° 0 mm 2 mps 619 mmHg 87%
22:00 +9°C° 0 mm 2 mps 619 mmHg 83%
23:00 +9°C° 0 mm 2 mps 619 mmHg 80%
Show more